1579042800,2020-01-15 00:00,27.79,997.42,1023.20,214,24.08,4.35,-26,1
1579042860,2020-01-15 00:01,27.79,997.42,1023.20,214,24.07,4.34,-27,1
1579042920,2020-01-15 00:02,27.77,997.45,1023.23,214,24.08,4.34,-25,1
1579042981,2020-01-15 00:03,27.77,997.47,1023.25,214,24.07,4.33,-23,1
1579043041,2020-01-15 00:04,27.73,997.49,1023.27,214,24.07,4.31,-27,1
1579043101,2020-01-15 00:05,27.70,997.50,1023.28,214,24.07,4.30,-27,1
1579043162,2020-01-15 00:06,27.71,997.51,1023.29,214,24.07,4.30,-26,1
1579043222,2020-01-15 00:07,27.68,997.55,1023.33,214,24.07,4.28,-23,1
1579043282,2020-01-15 00:08,27.67,997.54,1023.33,214,24.07,4.28,-26,1
1579043342,2020-01-15 00:09,27.67,997.55,1023.33,214,24.06,4.27,-25,1
1579043463,2020-01-15 00:11,27.63,997.58,1023.36,214,24.07,4.26,-25,1
1579043523,2020-01-15 00:12,27.61,997.56,1023.34,214,24.07,4.25,-27,1
1579043584,2020-01-15 00:13,27.60,997.54,1023.32,214,24.07,4.24,-26,1
1579043644,2020-01-15 00:14,27.60,997.53,1023.31,214,24.07,4.24,-25,1
1579043704,2020-01-15 00:15,27.58,997.57,1023.35,214,24.07,4.23,-25,1
1579043764,2020-01-15 00:16,27.56,997.51,1023.29,214,24.07,4.22,-25,1
1579043825,2020-01-15 00:17,27.54,997.53,1023.31,214,24.06,4.20,-25,1
1579043885,2020-01-15 00:18,27.54,997.52,1023.30,214,24.06,4.20,-26,1
1579043945,2020-01-15 00:19,27.51,997.49,1023.27,214,24.06,4.19,-26,1
1579044005,2020-01-15 00:20,27.49,997.50,1023.28,214,24.06,4.18,-25,1
1579044066,2020-01-15 00:21,27.48,997.46,1023.25,214,24.06,4.17,-26,1
1579044126,2020-01-15 00:22,27.47,997.49,1023.27,214,24.06,4.17,-26,1
1579044186,2020-01-15 00:23,27.46,997.45,1023.24,214,24.05,4.15,-26,1
1579044247,2020-01-15 00:24,27.46,997.46,1023.24,214,24.05,4.15,-25,1
1579044307,2020-01-15 00:25,27.44,997.45,1023.23,214,24.06,4.15,-25,1
1579044367,2020-01-15 00:26,27.43,997.47,1023.26,214,24.06,4.14,-24,1
1579044427,2020-01-15 00:27,27.40,997.49,1023.28,214,24.05,4.12,-27,1
1579044488,2020-01-15 00:28,27.38,997.49,1023.27,214,24.05,4.11,-25,1
1579044548,2020-01-15 00:29,27.38,997.50,1023.28,214,24.05,4.11,-25,1
1579044608,2020-01-15 00:30,27.36,997.45,1023.24,214,24.05,4.10,-25,1
1579044668,2020-01-15 00:31,27.35,997.43,1023.21,214,24.06,4.10,-25,1
1579044729,2020-01-15 00:32,27.32,997.42,1023.20,214,24.05,4.08,-26,1
1579044789,2020-01-15 00:33,27.29,997.43,1023.21,214,24.05,4.07,-24,1
1579044849,2020-01-15 00:34,27.32,997.45,1023.23,214,24.05,4.08,-28,1
1579044970,2020-01-15 00:36,27.25,997.41,1023.20,214,24.05,4.04,-25,1
1579045030,2020-01-15 00:37,27.25,997.36,1023.15,214,24.04,4.04,-24,1
1579045090,2020-01-15 00:38,27.23,997.36,1023.15,214,24.04,4.02,-28,1
1579045151,2020-01-15 00:39,27.22,997.38,1023.16,214,24.04,4.02,-26,1
1579045271,2020-01-15 00:41,27.18,997.43,1023.21,214,24.03,3.99,-27,1
1579045331,2020-01-15 00:42,27.09,997.44,1023.22,214,24.04,3.95,-25,1
1579045392,2020-01-15 00:43,27.14,997.41,1023.19,214,24.04,3.98,-24,1
1579045452,2020-01-15 00:44,27.11,997.39,1023.17,214,24.04,3.96,-26,1
1579045512,2020-01-15 00:45,27.11,997.41,1023.19,214,24.03,3.95,-27,1
1579045573,2020-01-15 00:46,27.11,997.47,1023.25,214,24.03,3.95,-25,1
1579045633,2020-01-15 00:47,27.06,997.50,1023.28,214,24.04,3.94,-26,1
1579045693,2020-01-15 00:48,27.06,997.55,1023.34,214,24.04,3.94,-26,1
1579045753,2020-01-15 00:49,26.89,997.53,1023.31,214,24.04,3.85,-24,1
1579045814,2020-01-15 00:50,27.04,997.52,1023.30,214,24.04,3.93,-26,1
1579045874,2020-01-15 00:51,27.04,997.52,1023.31,214,24.03,3.92,-27,1
1579045934,2020-01-15 00:52,27.00,997.51,1023.30,214,24.03,3.89,-26,1
1579045995,2020-01-15 00:53,27.02,997.50,1023.28,214,24.04,3.92,-24,1
1579046055,2020-01-15 00:54,26.95,997.50,1023.28,214,24.03,3.87,-26,1
1579046115,2020-01-15 00:55,27.30,997.53,1023.32,214,24.02,4.05,-25,1
1579046175,2020-01-15 00:56,26.97,997.50,1023.29,214,24.02,3.87,-25,1
1579046236,2020-01-15 00:57,26.96,997.49,1023.28,214,24.02,3.87,-25,1
1579046296,2020-01-15 00:58,26.95,997.48,1023.27,214,24.03,3.87,-26,1
1579046356,2020-01-15 00:59,26.95,997.49,1023.28,214,24.03,3.87,-25,1
1579046416,2020-01-15 01:00,26.93,997.50,1023.29,214,24.02,3.85,-26,1
1579046477,2020-01-15 01:01,26.92,997.51,1023.30,214,24.03,3.85,-24,1
1579046537,2020-01-15 01:02,26.90,997.49,1023.27,214,24.02,3.83,-26,1
1579046597,2020-01-15 01:03,26.88,997.51,1023.29,214,24.03,3.83,-26,1
1579046658,2020-01-15 01:04,26.87,997.53,1023.32,214,24.02,3.82,-25,1
1579046778,2020-01-15 01:06,26.84,997.55,1023.33,214,24.02,3.81,-26,1
1579046839,2020-01-15 01:07,26.82,997.51,1023.30,214,24.02,3.79,-25,1
1579046899,2020-01-15 01:08,26.82,997.55,1023.33,214,24.03,3.80,-26,1
1579046959,2020-01-15 01:09,26.81,997.58,1023.36,214,24.02,3.79,-23,1
1579047019,2020-01-15 01:10,26.80,997.57,1023.36,214,24.02,3.78,-22,1
1579047080,2020-01-15 01:11,26.77,997.57,1023.36,214,24.02,3.76,-23,1
1579047200,2020-01-15 01:13,26.72,997.53,1023.32,214,24.02,3.74,-25,1
1579047260,2020-01-15 01:14,26.73,997.53,1023.31,214,24.01,3.74,-24,1
1579047321,2020-01-15 01:15,26.71,997.52,1023.30,214,24.02,3.74,-25,1
1579047381,2020-01-15 01:16,26.71,997.54,1023.32,214,24.02,3.74,-26,1
1579047441,2020-01-15 01:17,26.69,997.53,1023.32,214,24.02,3.72,-27,1
1579047501,2020-01-15 01:18,26.68,997.52,1023.30,214,24.01,3.71,-26,1
1579047562,2020-01-15 01:19,26.66,997.51,1023.29,214,24.01,3.70,-27,1
1579047622,2020-01-15 01:20,26.65,997.52,1023.31,214,24.01,3.69,-22,1
1579047682,2020-01-15 01:21,26.56,997.51,1023.29,214,24.01,3.64,-26,1
1579047743,2020-01-15 01:22,26.62,997.49,1023.28,214,24.01,3.68,-25,1
1579047803,2020-01-15 01:23,26.61,997.49,1023.27,214,24.01,3.67,-25,1
1579047863,2020-01-15 01:24,26.63,997.51,1023.29,214,24.01,3.69,-25,1
1579047923,2020-01-15 01:25,26.58,997.49,1023.27,214,24.01,3.66,-25,1
1579047984,2020-01-15 01:26,26.56,997.45,1023.23,214,24.00,3.64,-25,1
1579048044,2020-01-15 01:27,26.55,997.46,1023.25,214,24.01,3.64,-24,1
1579048165,2020-01-15 01:29,26.59,997.49,1023.28,214,24.01,3.66,-24,1
1579048285,2020-01-15 01:31,26.51,997.53,1023.32,214,24.01,3.62,-24,1
1579048345,2020-01-15 01:32,26.49,997.55,1023.33,214,24.00,3.60,-25,1
1579048406,2020-01-15 01:33,26.50,997.53,1023.32,214,24.01,3.62,-26,1
1579048466,2020-01-15 01:34,26.31,997.56,1023.34,214,24.01,3.51,-26,1
1579048526,2020-01-15 01:35,26.45,997.57,1023.35,214,24.00,3.58,-22,1
1579048587,2020-01-15 01:36,26.46,997.57,1023.35,214,24.01,3.59,-25,1
1579048647,2020-01-15 01:37,26.45,997.58,1023.37,214,24.01,3.59,-27,1
1579048707,2020-01-15 01:38,26.53,997.60,1023.38,214,24.01,3.63,-27,1
1579048767,2020-01-15 01:39,26.43,997.60,1023.38,214,24.00,3.57,-26,1
1579048828,2020-01-15 01:40,26.38,997.57,1023.35,214,24.00,3.54,-26,1
1579048888,2020-01-15 01:41,26.37,997.61,1023.40,214,24.01,3.54,-25,1
1579048948,2020-01-15 01:42,26.38,997.62,1023.40,214,24.01,3.55,-24,1
1579049009,2020-01-15 01:43,26.36,997.62,1023.40,214,23.99,3.52,-23,1
1579049069,2020-01-15 01:44,26.37,997.58,1023.36,214,24.00,3.54,-25,1
1579049190,2020-01-15 01:46,26.35,997.67,1023.46,214,24.00,3.52,-26,1
1579049250,2020-01-15 01:47,26.32,997.65,1023.43,214,24.01,3.52,-25,1
1579049310,2020-01-15 01:48,26.33,997.61,1023.39,214,24.01,3.52,-27,1
1579049370,2020-01-15 01:49,26.29,997.60,1023.38,214,24.01,3.50,-26,1
1579049431,2020-01-15 01:50,26.29,997.64,1023.43,214,24.01,3.50,-26,1
1579049551,2020-01-15 01:52,26.26,997.66,1023.45,214,24.00,3.48,-26,1
1579049612,2020-01-15 01:53,26.26,997.59,1023.38,214,24.00,3.48,-22,1
1579049672,2020-01-15 01:54,26.26,997.62,1023.40,214,24.00,3.48,-27,1
1579049732,2020-01-15 01:55,26.25,997.62,1023.40,214,24.00,3.47,-26,1
1579049792,2020-01-15 01:56,26.22,997.61,1023.40,214,24.00,3.45,-25,1
1579049853,2020-01-15 01:57,26.22,997.59,1023.37,214,24.00,3.45,-25,1
1579049913,2020-01-15 01:58,26.21,997.57,1023.35,214,24.00,3.45,-24,1
1579049973,2020-01-15 01:59,26.20,997.61,1023.39,214,24.00,3.44,-24,1
1579050033,2020-01-15 02:00,26.19,997.65,1023.43,214,23.99,3.43,-24,1
1579050094,2020-01-15 02:01,26.19,997.65,1023.43,214,23.99,3.43,-25,1
1579050154,2020-01-15 02:02,26.22,997.68,1023.46,214,23.99,3.45,-23,1
1579050214,2020-01-15 02:03,25.85,997.64,1023.43,214,24.00,3.25,-25,1
1579050274,2020-01-15 02:04,26.16,997.65,1023.44,214,24.00,3.42,-26,1
1579050334,2020-01-15 02:05,26.15,997.63,1023.42,214,24.00,3.42,-25,1
1579050394,2020-01-15 02:06,26.13,997.64,1023.43,214,23.93,3.35,-26,1
1579050454,2020-01-15 02:07,26.27,997.62,1023.40,214,23.98,3.47,-26,1
1579050514,2020-01-15 02:08,26.02,997.61,1023.39,214,23.99,3.34,-26,1
1579050574,2020-01-15 02:09,26.11,997.62,1023.40,214,23.99,3.39,-25,1
1579050634,2020-01-15 02:10,26.11,997.64,1023.42,214,23.99,3.39,-23,1
1579050695,2020-01-15 02:11,26.08,997.66,1023.44,214,23.94,3.33,-26,1
1579050755,2020-01-15 02:12,26.11,997.69,1023.47,214,23.98,3.38,-25,1
1579050815,2020-01-15 02:13,26.06,997.71,1023.49,214,23.98,3.35,-25,1
1579050875,2020-01-15 02:14,26.08,997.73,1023.51,214,23.98,3.36,-22,1
1579050995,2020-01-15 02:16,26.05,997.61,1023.39,214,23.98,3.35,-26,1
1579051055,2020-01-15 02:17,26.01,997.65,1023.43,214,23.98,3.32,-25,1
1579051115,2020-01-15 02:18,26.02,997.67,1023.46,214,23.98,3.33,-25,1
1579051175,2020-01-15 02:19,26.00,997.71,1023.50,214,23.98,3.32,-25,1
1579051235,2020-01-15 02:20,26.00,997.69,1023.47,214,23.98,3.32,-26,1
1579051295,2020-01-15 02:21,25.99,997.59,1023.37,214,23.98,3.31,-22,1
1579051355,2020-01-15 02:22,25.98,997.64,1023.42,214,23.98,3.31,-25,1
1579051415,2020-01-15 02:23,25.96,997.66,1023.44,214,23.97,3.29,-25,1
1579051476,2020-01-15 02:24,25.92,997.69,1023.48,214,23.98,3.28,-25,1
1579051536,2020-01-15 02:25,25.93,997.69,1023.47,214,23.97,3.27,-25,1
1579051596,2020-01-15 02:26,25.97,997.69,1023.47,214,23.98,3.30,-26,1
1579051656,2020-01-15 02:27,25.93,997.67,1023.46,214,23.97,3.27,-22,1
1579051716,2020-01-15 02:28,25.90,997.69,1023.47,214,23.97,3.25,-25,1
1579051776,2020-01-15 02:29,25.90,997.68,1023.47,214,23.97,3.25,-27,1
1579051836,2020-01-15 02:30,25.89,997.66,1023.44,214,23.98,3.26,-25,1
1579051896,2020-01-15 02:31,25.65,997.66,1023.45,214,23.97,3.12,-23,1
1579052016,2020-01-15 02:33,25.87,997.67,1023.45,214,23.97,3.24,-26,1
1579052076,2020-01-15 02:34,25.87,997.61,1023.39,214,23.97,3.24,-27,1
1579052137,2020-01-15 02:35,25.86,997.63,1023.42,214,23.96,3.22,-27,1
1579052257,2020-01-15 02:37,25.83,997.57,1023.35,214,23.96,3.21,-25,1
1579052317,2020-01-15 02:38,25.81,997.63,1023.41,214,23.97,3.21,-25,1
1579052377,2020-01-15 02:39,25.84,997.61,1023.39,214,23.96,3.22,-22,1
1579052437,2020-01-15 02:40,25.81,997.61,1023.39,214,23.96,3.20,-27,1
1579052497,2020-01-15 02:41,26.11,997.60,1023.38,214,23.97,3.37,-26,1
1579052557,2020-01-15 02:42,25.79,997.64,1023.42,214,23.96,3.19,-28,1
1579052617,2020-01-15 02:43,25.77,997.63,1023.42,214,23.96,3.17,-25,1
1579052677,2020-01-15 02:44,25.79,997.61,1023.40,214,23.96,3.19,-26,1
1579052737,2020-01-15 02:45,25.77,997.64,1023.42,214,23.95,3.17,-25,1
1579052797,2020-01-15 02:46,25.83,997.63,1023.41,214,23.95,3.20,-21,1
1579052858,2020-01-15 02:47,25.77,997.67,1023.45,214,23.96,3.17,-26,1
1579052918,2020-01-15 02:48,25.76,997.64,1023.43,214,23.96,3.17,-26,1
1579052978,2020-01-15 02:49,25.75,997.71,1023.49,214,23.95,3.15,-27,1
1579053038,2020-01-15 02:50,25.76,997.69,1023.47,214,23.95,3.16,-24,1
1579053098,2020-01-15 02:51,25.76,997.68,1023.46,214,23.95,3.16,-24,1
1579053158,2020-01-15 02:52,25.72,997.69,1023.47,214,23.94,3.13,-27,1
1579053218,2020-01-15 02:53,25.56,997.68,1023.46,214,23.95,3.05,-28,1
1579053278,2020-01-15 02:54,25.71,997.70,1023.48,214,23.95,3.14,-27,1
1579053338,2020-01-15 02:55,25.60,997.68,1023.46,214,23.96,3.08,-25,1
1579053398,2020-01-15 02:56,25.72,997.65,1023.44,214,23.95,3.14,-26,1
1579053458,2020-01-15 02:57,25.72,997.64,1023.42,214,23.95,3.14,-25,1
1579053518,2020-01-15 02:58,25.71,997.62,1023.40,214,23.95,3.13,-27,1
1579053579,2020-01-15 02:59,25.69,997.66,1023.45,214,23.95,3.12,-27,1
1579053702,2020-01-15 03:01,25.58,997.73,1023.51,214,23.94,3.05,-25,1
1579053762,2020-01-15 03:02,25.66,997.74,1023.52,214,23.95,3.11,-25,1
1579053822,2020-01-15 03:03,25.67,997.72,1023.50,214,23.95,3.11,-27,1
1579053883,2020-01-15 03:04,25.66,997.70,1023.48,214,23.95,3.11,-23,1
1579053943,2020-01-15 03:05,25.66,997.69,1023.48,214,23.95,3.10,-25,1
1579054003,2020-01-15 03:06,25.64,997.69,1023.47,214,23.95,3.09,-27,1
1579054063,2020-01-15 03:07,25.62,997.70,1023.49,214,23.95,3.09,-25,1
1579054124,2020-01-15 03:08,25.61,997.71,1023.49,214,23.95,3.08,-25,1
1579054184,2020-01-15 03:09,25.61,997.68,1023.46,214,23.94,3.07,-27,1
1579054305,2020-01-15 03:11,25.60,997.67,1023.46,214,23.94,3.07,-25,1
1579054365,2020-01-15 03:12,25.59,997.69,1023.48,214,23.94,3.06,-26,1
1579054425,2020-01-15 03:13,25.61,997.74,1023.53,214,23.94,3.07,-25,1
1579054485,2020-01-15 03:14,25.59,997.68,1023.47,214,23.93,3.05,-26,1
1579054546,2020-01-15 03:15,25.58,997.66,1023.45,214,23.94,3.05,-26,1
1579054606,2020-01-15 03:16,25.59,997.68,1023.46,214,23.94,3.06,-26,1
1579054666,2020-01-15 03:17,25.58,997.70,1023.48,214,23.94,3.05,-25,1
1579054726,2020-01-15 03:18,25.56,997.74,1023.52,214,23.94,3.04,-25,1
1579054787,2020-01-15 03:19,25.54,997.71,1023.49,214,23.94,3.03,-25,1
1579054847,2020-01-15 03:20,25.51,997.69,1023.48,214,23.93,3.01,-26,1
1579054907,2020-01-15 03:21,25.51,997.69,1023.47,214,23.94,3.02,-25,1
1579054968,2020-01-15 03:22,25.51,997.70,1023.48,214,23.94,3.02,-25,1
1579055028,2020-01-15 03:23,25.50,997.72,1023.50,214,23.94,3.01,-24,1
1579055088,2020-01-15 03:24,25.51,997.71,1023.49,214,23.94,3.02,-25,1
1579055148,2020-01-15 03:25,25.49,997.69,1023.47,214,23.93,3.00,-26,1
1579055209,2020-01-15 03:26,25.47,997.73,1023.51,214,23.93,2.98,-25,1
1579055269,2020-01-15 03:27,25.47,997.79,1023.57,214,23.93,2.98,-24,1
1579055329,2020-01-15 03:28,25.47,997.76,1023.55,214,23.94,2.99,-26,1
1579055389,2020-01-15 03:29,25.44,997.72,1023.51,214,23.94,2.97,-22,1
1579055450,2020-01-15 03:30,25.46,997.72,1023.50,214,23.94,2.99,-27,1
1579055510,2020-01-15 03:31,25.44,997.72,1023.50,214,23.93,2.97,-26,1
1579055570,2020-01-15 03:32,25.43,997.71,1023.49,214,23.93,2.96,-27,1
1579055630,2020-01-15 03:33,25.45,997.73,1023.51,214,23.93,2.97,-25,1
1579055691,2020-01-15 03:34,25.42,997.69,1023.47,214,23.93,2.95,-25,1
1579055751,2020-01-15 03:35,25.41,997.68,1023.46,214,23.93,2.95,-27,1
1579055811,2020-01-15 03:36,25.46,997.70,1023.49,214,23.93,2.98,-26,1
1579055872,2020-01-15 03:37,25.39,997.68,1023.46,214,23.92,2.93,-23,1
1579055932,2020-01-15 03:38,25.39,997.66,1023.44,214,23.92,2.93,-25,1
1579055992,2020-01-15 03:39,25.38,997.66,1023.44,214,23.92,2.93,-25,1
1579056052,2020-01-15 03:40,25.39,997.70,1023.48,214,23.92,2.93,-24,1
1579056113,2020-01-15 03:41,25.16,997.74,1023.52,214,23.92,2.80,-23,1
1579056233,2020-01-15 03:43,25.35,997.70,1023.49,214,23.92,2.91,-25,1
1579056293,2020-01-15 03:44,25.35,997.69,1023.47,214,23.92,2.91,-25,1
1579056414,2020-01-15 03:46,25.34,997.76,1023.54,214,23.92,2.90,-27,1
1579056474,2020-01-15 03:47,25.33,997.74,1023.52,214,23.92,2.90,-26,1
1579056535,2020-01-15 03:48,25.33,997.78,1023.56,214,23.91,2.89,-25,1
1579056595,2020-01-15 03:49,25.31,997.78,1023.56,214,23.92,2.88,-26,1
1579056655,2020-01-15 03:50,25.32,997.79,1023.58,214,23.91,2.88,-25,1
1579056715,2020-01-15 03:51,25.29,997.78,1023.56,214,23.92,2.88,-25,1
1579056776,2020-01-15 03:52,25.24,997.79,1023.57,214,23.92,2.85,-26,1
1579056836,2020-01-15 03:53,25.27,997.82,1023.60,214,23.92,2.87,-24,1
1579056896,2020-01-15 03:54,25.28,997.83,1023.61,214,23.91,2.86,-27,1
1579057017,2020-01-15 03:56,25.24,997.84,1023.62,214,23.92,2.85,-26,1
1579057077,2020-01-15 03:57,25.24,997.83,1023.61,214,23.92,2.85,-23,1
1579057137,2020-01-15 03:58,25.23,997.82,1023.60,214,23.91,2.83,-26,1
1579057198,2020-01-15 03:59,25.23,997.80,1023.58,214,23.91,2.83,-27,1
1579057258,2020-01-15 04:00,25.24,997.79,1023.57,214,23.91,2.84,-27,1
1579057318,2020-01-15 04:01,25.24,997.73,1023.51,214,23.91,2.84,-26,1
1579057379,2020-01-15 04:02,25.22,997.77,1023.56,214,23.91,2.83,-23,1
1579057439,2020-01-15 04:03,25.21,997.76,1023.54,214,23.91,2.82,-25,1
1579057499,2020-01-15 04:04,25.21,997.76,1023.54,214,23.91,2.82,-26,1
1579057559,2020-01-15 04:05,25.21,997.81,1023.59,214,23.91,2.82,-26,1
1579057620,2020-01-15 04:07,25.20,997.80,1023.58,214,23.90,2.81,-27,1
1579057680,2020-01-15 04:08,25.16,997.84,1023.62,214,23.91,2.80,-26,1
1579057740,2020-01-15 04:09,25.16,997.82,1023.60,214,23.91,2.80,-27,1
1579057801,2020-01-15 04:10,25.21,997.85,1023.63,214,23.90,2.81,-26,1
1579057861,2020-01-15 04:11,25.17,997.91,1023.69,214,23.91,2.80,-26,1
1579057921,2020-01-15 04:12,25.17,997.88,1023.66,214,23.90,2.79,-26,1
1579057981,2020-01-15 04:13,25.08,997.91,1023.69,214,23.91,2.75,-26,1
1579058042,2020-01-15 04:14,25.16,997.88,1023.66,214,23.90,2.79,-25,1
1579058162,2020-01-15 04:16,25.14,997.90,1023.69,214,23.90,2.78,-27,1
1579058222,2020-01-15 04:17,25.14,997.93,1023.71,214,23.90,2.78,-21,1
1579058283,2020-01-15 04:18,25.13,997.92,1023.70,214,23.90,2.77,-27,1
1579058343,2020-01-15 04:19,25.12,997.92,1023.70,214,23.90,2.76,-26,1
1579058403,2020-01-15 04:20,25.12,997.93,1023.72,214,23.90,2.76,-26,1
1579058464,2020-01-15 04:21,25.11,997.93,1023.71,214,23.90,2.76,-27,1
1579058524,2020-01-15 04:22,25.07,997.94,1023.72,214,23.90,2.74,-27,1
1579058584,2020-01-15 04:23,25.08,997.94,1023.72,214,23.89,2.73,-22,1
1579058644,2020-01-15 04:24,25.24,997.91,1023.70,214,23.90,2.83,-25,1
1579058705,2020-01-15 04:25,25.06,997.90,1023.69,214,23.88,2.72,-26,1
1579058765,2020-01-15 04:26,25.05,997.94,1023.72,214,23.89,2.72,-27,1
1579058825,2020-01-15 04:27,25.07,997.97,1023.75,214,23.90,2.74,-25,1
1579058886,2020-01-15 04:28,25.06,997.96,1023.74,214,23.89,2.72,-26,1
1579058946,2020-01-15 04:29,25.06,997.93,1023.71,214,23.89,2.72,-26,1
1579059006,2020-01-15 04:30,25.05,997.95,1023.73,214,23.88,2.71,-24,1
1579059066,2020-01-15 04:31,25.03,997.91,1023.69,214,23.88,2.70,-27,1
1579059127,2020-01-15 04:32,25.03,997.95,1023.73,214,23.89,2.70,-25,1
1579059187,2020-01-15 04:33,25.11,997.97,1023.75,214,23.89,2.75,-25,1
1579059247,2020-01-15 04:34,24.89,997.97,1023.76,214,23.88,2.62,-26,1
1579059308,2020-01-15 04:35,24.92,997.93,1023.72,214,23.88,2.63,-25,1
1579059368,2020-01-15 04:36,25.01,997.98,1023.76,214,23.88,2.68,-25,1
1579059428,2020-01-15 04:37,25.00,997.98,1023.76,214,23.89,2.69,-26,1
1579059549,2020-01-15 04:39,24.96,997.93,1023.71,214,23.88,2.66,-26,1
1579059609,2020-01-15 04:40,25.01,997.94,1023.72,214,23.88,2.68,-22,1
1579059729,2020-01-15 04:42,24.95,997.95,1023.74,214,23.87,2.65,-27,1
1579059790,2020-01-15 04:43,24.69,997.95,1023.73,214,23.88,2.50,-24,1
1579059850,2020-01-15 04:44,24.94,997.97,1023.76,214,23.88,2.65,-27,1
1579059910,2020-01-15 04:45,24.95,997.97,1023.75,214,23.88,2.65,-25,1
1579059971,2020-01-15 04:46,24.94,997.97,1023.76,214,23.87,2.64,-26,1
1579060031,2020-01-15 04:47,24.94,997.98,1023.76,214,23.87,2.64,-25,1
1579060091,2020-01-15 04:48,24.94,997.94,1023.72,214,23.87,2.64,-26,1
1579060151,2020-01-15 04:49,24.94,997.96,1023.75,214,23.87,2.64,-24,1
1579060212,2020-01-15 04:50,24.93,997.98,1023.77,214,23.88,2.64,-26,1
1579060272,2020-01-15 04:51,24.92,997.98,1023.76,214,23.88,2.63,-27,1
1579060332,2020-01-15 04:52,24.92,997.97,1023.76,214,23.88,2.63,-24,1
1579060392,2020-01-15 04:53,24.92,997.98,1023.76,214,23.88,2.63,-26,1
1579060453,2020-01-15 04:54,24.91,998.06,1023.84,214,23.88,2.63,-26,1
1579060513,2020-01-15 04:55,24.92,998.08,1023.86,214,23.88,2.63,-24,1
1579060573,2020-01-15 04:56,24.90,998.04,1023.82,214,23.88,2.62,-27,1
1579060634,2020-01-15 04:57,24.89,998.04,1023.82,214,23.88,2.62,-26,1
1579060694,2020-01-15 04:58,24.88,998.03,1023.82,214,23.87,2.60,-26,1
1579060754,2020-01-15 04:59,24.88,998.06,1023.84,214,23.87,2.60,-26,1
1579060814,2020-01-15 05:00,24.85,998.02,1023.81,214,23.87,2.59,-26,1
1579060875,2020-01-15 05:01,24.85,998.01,1023.79,214,23.86,2.58,-25,1
1579060935,2020-01-15 05:02,24.79,997.99,1023.77,214,23.87,2.55,-24,1
1579060995,2020-01-15 05:03,24.85,998.00,1023.78,214,23.86,2.58,-25,1
1579061055,2020-01-15 05:04,24.83,997.97,1023.76,214,23.87,2.58,-26,1
1579061116,2020-01-15 05:05,24.84,997.96,1023.75,214,23.87,2.58,-25,1
1579061176,2020-01-15 05:06,24.82,997.99,1023.78,214,23.87,2.57,-24,1
1579061236,2020-01-15 05:07,25.06,998.02,1023.80,214,23.87,2.71,-26,1
1579061297,2020-01-15 05:08,24.63,998.02,1023.80,214,23.87,2.46,-27,1
1579061357,2020-01-15 05:09,24.79,998.02,1023.81,214,23.87,2.55,-26,1
1579061417,2020-01-15 05:10,24.80,998.01,1023.79,214,23.87,2.56,-25,1
1579061477,2020-01-15 05:11,24.80,997.97,1023.75,214,23.87,2.56,-25,1
1579061538,2020-01-15 05:12,24.77,997.96,1023.74,214,23.86,2.53,-27,1
1579061598,2020-01-15 05:13,24.76,997.98,1023.76,214,23.87,2.53,-26,1
1579061658,2020-01-15 05:14,24.76,998.00,1023.78,214,23.87,2.53,-24,1
1579061719,2020-01-15 05:15,24.75,997.96,1023.75,214,23.87,2.53,-25,1
1579061779,2020-01-15 05:16,24.78,997.95,1023.74,214,23.87,2.55,-25,1
1579061839,2020-01-15 05:17,24.76,997.96,1023.74,214,23.86,2.52,-26,1
1579061899,2020-01-15 05:18,24.76,997.97,1023.75,214,23.86,2.52,-24,1
1579061960,2020-01-15 05:19,25.12,997.97,1023.75,214,23.85,2.72,-26,1
1579062020,2020-01-15 05:20,24.78,998.03,1023.81,214,23.86,2.54,-27,1
1579062080,2020-01-15 05:21,24.75,998.02,1023.80,214,23.87,2.53,-26,1
1579062141,2020-01-15 05:22,24.75,998.05,1023.83,214,23.87,2.53,-25,1
1579062201,2020-01-15 05:23,24.73,998.05,1023.84,214,23.86,2.51,-26,1
1579062321,2020-01-15 05:25,24.75,998.07,1023.85,214,23.86,2.52,-25,1
1579062382,2020-01-15 05:26,24.72,998.07,1023.85,214,23.86,2.51,-26,1
1579062442,2020-01-15 05:27,24.70,998.04,1023.82,214,23.87,2.50,-23,1
1579062502,2020-01-15 05:28,24.70,998.12,1023.90,214,23.86,2.49,-27,1
1579062563,2020-01-15 05:29,24.70,998.09,1023.87,214,23.86,2.49,-25,1
1579062623,2020-01-15 05:30,24.69,998.06,1023.85,214,23.86,2.49,-25,1
1579062683,2020-01-15 05:31,24.69,998.08,1023.87,214,23.87,2.50,-23,1
1579062743,2020-01-15 05:32,24.70,998.01,1023.79,214,23.86,2.49,-27,1
1579062804,2020-01-15 05:33,24.65,998.00,1023.78,214,23.87,2.47,-25,1
1579062864,2020-01-15 05:34,24.68,998.03,1023.81,214,23.87,2.49,-25,1
1579062924,2020-01-15 05:35,24.67,998.01,1023.80,214,23.87,2.48,-25,1
1579062984,2020-01-15 05:36,24.85,997.97,1023.75,214,23.87,2.59,-27,1
1579063165,2020-01-15 05:39,24.61,997.97,1023.75,214,23.87,2.45,-25,1
1579063226,2020-01-15 05:40,24.61,997.96,1023.74,214,23.87,2.45,-23,1
1579063286,2020-01-15 05:41,24.61,997.96,1023.74,214,23.87,2.45,-27,1
1579063346,2020-01-15 05:42,24.60,997.96,1023.74,214,23.88,2.45,-27,1
1579063406,2020-01-15 05:43,24.59,997.95,1023.74,214,23.87,2.44,-20,1
1579063467,2020-01-15 05:44,24.60,997.97,1023.75,214,23.87,2.45,-26,1
1579063527,2020-01-15 05:45,24.61,997.98,1023.77,214,23.87,2.45,-26,1
1579063648,2020-01-15 05:47,24.56,997.97,1023.75,214,23.87,2.42,-25,1
1579063708,2020-01-15 05:48,24.58,997.96,1023.75,214,23.87,2.43,-25,1
1579063828,2020-01-15 05:50,24.75,997.92,1023.70,214,23.88,2.54,-25,1
1579063889,2020-01-15 05:51,24.56,997.93,1023.71,214,23.88,2.43,-26,1
1579063949,2020-01-15 05:52,24.57,997.96,1023.74,214,23.89,2.44,-26,1
1579064009,2020-01-15 05:53,24.57,997.97,1023.75,214,23.88,2.44,-26,1
1579064070,2020-01-15 05:54,24.56,997.97,1023.76,214,23.87,2.42,-25,1
1579064130,2020-01-15 05:55,24.54,997.98,1023.77,214,23.89,2.43,-27,1
1579064190,2020-01-15 05:56,24.53,997.97,1023.75,214,23.87,2.40,-22,1
1579064250,2020-01-15 05:57,24.53,997.97,1023.75,214,23.88,2.41,-27,1
1579064311,2020-01-15 05:58,24.52,997.98,1023.76,214,23.87,2.40,-25,1
1579064371,2020-01-15 05:59,24.50,997.96,1023.75,214,23.89,2.41,-25,1
1579064431,2020-01-15 06:00,24.51,997.93,1023.71,214,23.89,2.41,-27,1
1579064492,2020-01-15 06:01,24.50,997.92,1023.70,214,23.88,2.40,-27,1
1579064552,2020-01-15 06:02,24.52,997.90,1023.69,214,23.89,2.41,-27,1
1579064612,2020-01-15 06:03,24.48,997.90,1023.68,214,23.88,2.39,-22,1
1579064672,2020-01-15 06:04,24.54,997.92,1023.71,214,23.88,2.42,-22,1
1579064733,2020-01-15 06:05,24.47,997.94,1023.72,214,23.88,2.38,-26,1
1579064793,2020-01-15 06:06,24.46,997.96,1023.74,214,23.88,2.37,-26,1
1579064853,2020-01-15 06:07,24.45,997.97,1023.75,214,23.87,2.36,-27,1